Flag for Slovakia Weather past 2 weeks in Prešov, Slovakia

Now
68 °F

Clear.


Feels Like: 68 °F
Forecast: 56 / 75 °F
Wind: 12 mph from Northeast

Location: Kosice - Barca

Current Time: Sep 3, 2015 at 10:04:12 PM

Latest Report: Sep 3, 2015 at 9:30 PM


Visibility: 10 mi

Pressure: 29.92 "Hg

Humidity: 64%

Dew point: 55 °F

Location of PrešovLocation

Historic Weather in Prešov — Graph

°F

Prešov temperature yesterday

Maximum temperature yesterday: 90 °F (at 2:00 PM)
Minimum temperature yesterday: 59 °F (at 5:00 AM)
Average temperature yesterday: 73 °F

Past Weeks' High & Low Weather Summary

 TemperatureHumidityPressure
High93 °F (Aug 30, 2:30 PM)94% (Aug 19, 10:30 PM)30.24 "Hg (Aug 19, 10:30 PM)
Low52 °F (Aug 21, 4:00 AM)26% (Sep 2, 2:00 PM)29.80 "Hg (Sep 1, 7:00 PM)
Average71 °F59%30.07 "Hg
* Reported Aug 19 9:00 PM — Sep 3 9:00 PM, Prešov, Weather by CustomWeather, © 2015

Note: Actual official high and low records may vary slightly from our data, if they occured in-between our weather recording intervals... More about our weather records

Advertising

Prešov weather history for previous 24 hours

 ConditionsComfort  
Time TempWeatherWind HumidityBarometerVisibility
9:00 PM
Thu, Sep 3
68 °FClear.12 mph64%29.92 "Hg10 mi
8:30 PM68 °FClear.14 mph64%29.92 "Hg10 mi
8:00 PM70 °FSunny.13 mph60%29.92 "Hg10 mi
7:30 PM70 °FSunny.12 mph60%29.92 "Hg10 mi
7:00 PM72 °FSunny.12 mph57%29.92 "Hg10 mi
6:30 PM73 °FSunny.10 mph53%29.92 "Hg10 mi
6:00 PM75 °FSunny.9 mph50%29.92 "Hg10 mi
5:30 PM75 °FPassing clouds.6 mph50%29.92 "HgN/A
5:00 PM77 °FPassing clouds.6 mph47%29.92 "HgN/A
4:30 PM77 °FPassing clouds.5 mph47%29.92 "HgN/A
4:00 PM77 °FPassing clouds.6 mph47%29.92 "HgN/A
3:30 PM77 °FPassing clouds.5 mph47%29.92 "HgN/A
3:00 PM77 °FPassing clouds.7 mph47%29.95 "HgN/A
2:30 PM75 °FPassing clouds.8 mph50%29.95 "HgN/A
2:00 PM73 °FPassing clouds.6 mph53%29.95 "HgN/A
1:30 PM75 °FPassing clouds.7 mph50%29.95 "HgN/A
1:00 PM73 °FPassing clouds.9 mph53%29.95 "HgN/A
12:30 PM73 °FPassing clouds.9 mph53%29.95 "HgN/A
12:00 PM73 °FPassing clouds.10 mph53%29.98 "HgN/A
11:30 AM72 °FPassing clouds.12 mph57%29.98 "HgN/A
11:00 AM70 °FPassing clouds.13 mph60%29.98 "HgN/A
10:30 AM68 °FPassing clouds.14 mph64%29.98 "HgN/A
10:00 AM68 °FPassing clouds.14 mph64%29.98 "HgN/A
9:30 AM66 °FPartly sunny.13 mph68%29.98 "HgN/A
9:00 AM66 °FScattered clouds.15 mph68%29.98 "HgN/A
8:30 AM66 °FScattered clouds.14 mph68%29.95 "HgN/A
8:00 AM64 °FPartly sunny.13 mph73%29.95 "HgN/A
7:30 AM64 °FPartly sunny.13 mph68%29.95 "HgN/A
7:00 AM64 °FPartly sunny.12 mph73%29.95 "HgN/A
6:30 AM64 °FPassing clouds.12 mph73%29.95 "HgN/A
6:00 AM64 °FPassing clouds.10 mph73%29.95 "HgN/A
5:30 AM64 °FPassing clouds.10 mph73%29.95 "HgN/A
5:00 AM64 °FPassing clouds.10 mph73%29.92 "HgN/A
4:30 AM64 °FPassing clouds.12 mph73%29.92 "HgN/A
4:00 AM64 °FClear.15 mph73%29.92 "Hg10 mi
3:30 AM64 °FClear.15 mph73%29.92 "Hg10 mi
3:00 AM64 °FClear.14 mph73%29.92 "Hg10 mi
2:30 AM64 °FClear.14 mph73%29.92 "Hg10 mi
2:00 AM64 °FClear.15 mph73%29.92 "Hg10 mi
1:30 AM64 °FClear.14 mph73%29.92 "Hg10 mi
1:00 AM66 °FClear.15 mph68%29.92 "Hg10 mi
12:00 AM66 °FClear.17 mph68%29.92 "Hg10 mi
11:30 PM
Wed, Sep 2
66 °FClear.16 mph68%29.92 "Hg10 mi
11:00 PM66 °FClear.16 mph68%29.92 "Hg10 mi
10:30 PM66 °FClear.16 mph73%29.92 "Hg10 mi
10:00 PM66 °FClear.18 mph68%29.92 "Hg10 mi
Weather by CustomWeather, © 2015

See weather overviewHow to use our weather pages